Regional Weather Roundup
Issued by NWS

Home | Current Version | Previous Version | Text Only | Print | Product List | Glossary On
Versions: 1 2 3 4 5 6 7 8 9 10 11 12 13 14 15 16 17 18 19 20 21 22 23 24 25 26 27 28 29 30 31 32 33 34 35 36 37 38 39 40 41 42 43 44 45 46 47 48 49 50
235
ASUS43 KFSD 260802
RWRSD

WEATHER ROUNDUP FOR SOUTH DAKOTA
NATIONAL WEATHER SERVICE SIOUX FALLS SD
300 AM CDT TUE SEP 26 2017

NOTE: "FAIR" INDICATES FEW OR NO CLOUDS BELOW 12,000 FEET WITH NO
SIGNIFICANT WEATHER AND/OR OBSTRUCTIONS TO VISIBILITY.


SDZ001>005-009-010-012>017-260900-
NORTHWEST AND NORTH CENTRAL SOUTH DAKOTA

CITY           SKY/WX    TMP DP  RH WIND       PRES   REMARKS
FAITH            N/A     45  45 100 S8        30.10F
MOBRIDGE       MOCLDY    44  42  93 CALM      30.08F
$$

SDZ012>016-024>037-041>051-057-063-072>074-260900-
SOUTHWEST AND SOUTH CENTRAL SOUTH DAKOTA

CITY           SKY/WX    TMP DP  RH WIND       PRES   REMARKS
RAPID CTY ARPT NOT AVBL
PIERRE         PTCLDY    45  42  89 CALM      30.08F
CUSTER         CLOUDY    38  36  92 CALM      30.12F
ELLSWORTH AFB  LGT RAIN  46  46 100 S13       30.10
PHILIP         MOCLDY    43  42  97 CALM      30.13S
PINE RIDGE     CLOUDY    39  39 100 CALM      30.14R
SPEARFISH      FOG       41  41 100 W3        30.10S VSB 1
WINNER         FAIR      47  45  93 W3        30.11R
$$

SDZ004>011-016>023-039-040-260900-
NORTHEAST SOUTH DAKOTA

CITY           SKY/WX    TMP DP  RH WIND       PRES   REMARKS
ABERDEEN       CLOUDY    48  48 100 NW8       30.07S
WATERTOWN      CLOUDY    48  48 100 N8        30.01F
BROOKINGS      LGT RAIN  49  48  97 N7        30.02F
SISSETON         N/A     49  49 100 N9        30.03F
$$

SDZ017-020-022-023-036>040-048>070-260900-
SOUTHEAST SOUTH DAKOTA

CITY           SKY/WX    TMP DP  RH WIND       PRES   REMARKS
SIOUX FALLS    LGT RAIN  52  52 100 N10       30.01F
HURON          LGT RAIN  48  48 100 NW9       30.08R
CHAMBERLAIN    CLOUDY    50  50 100 NW5       30.10R
MITCHELL       CLOUDY    50  49  96 NW10      30.07S
YANKTON        LGT RAIN  51  50  96 NW9       30.04R
$$

ABBREVIATIONS USED IN REMARKS
   TC - TEMPERATURE IN CELSIUS
  WCI - WIND CHILL INDEX
   HX - HEAT INDEX
  VSB - VISIBILITY





USA.gov is the U.S. government's official web portal to all federal, state and local government web resources and services.